Location: Arbon
(43.0005°N, 0.7472°E)
Time: 20:13:20
(UTC+00:00)

Courier 1B Rocket - Pass Details

Date: 28 November 2020
Orbit: 920 x 1202 km, 28.2° (Epoch: 22 January)

Event Time Altitude Azimuth Distance (km) Brightness Sun altitude
Rises 10:29:26 0° 255° (WSW) 3,993 8.2 23.3°
Reaches altitude 10° 10:33:53 10° 232° (SW) 2,972 7.9 23.5°
Maximum altitude 10:37:21 14° 203° (SSW) 2,630 8.2 23.7°
Drops below altitude 10° 10:40:43 10° 174° (S) 2,866 9.3 23.9°
Sets 10:44:53 0° 150° (SSE) 3,751 9.3 24.1°
